Flag for U.S.A. Weather past 2 weeks in Duluth, Minnesota, U.S.A.

Now
25 °F

Overcast.


Feels Like: 12 °F
Forecast: 18 / 25 °F
Wind: 15 mph from Northwest

Location: Sky Harbor Airport

Current Time: Dec 27, 2014 at 6:15:15 AM

Latest Report: Dec 27, 2014 at 5:33 AM


Visibility: 10 mi

Pressure: 30.04 "Hg

Humidity: 80%

Dew point: 19 °F

Location of DuluthLocation

Historic Weather in Duluth — Graph

°F

Duluth temperature yesterday

Maximum temperature yesterday: 34 °F (at 12:13 AM)
Minimum temperature yesterday: 28 °F (at 11:33 PM)
Average temperature yesterday: 32 °F

Past Weeks' High & Low Weather Summary

 TemperatureHumidityPressure
High41 °F (Dec 13, 8:13 PM)100% (Dec 13, 1:53 AM)30.36 "Hg (Dec 13, 1:53 AM)
Low16 °F (Dec 17, 3:53 AM)68% (Dec 17, 12:34 PM)29.51 "Hg (Dec 25, 12:34 AM)
Average32 °F87%29.98 "Hg
* Reported Dec 12 5:13 AM — Dec 27 5:13 AM, Duluth, Weather by CustomWeather, © 2014

Note: Actual official high and low records may vary slightly from our data, if they occured in-between our weather recording intervals... More about our weather records

Advertising

Duluth weather history for previous 24 hours

 ConditionsComfort  
Time TempWeatherWind HumidityBarometerVisibility
5:13 AM
Dec 27
27 °FOvercast.15 mph80%30.03 "Hg10 mi
4:53 AM27 °FOvercast.15 mph80%30.03 "Hg10 mi
4:34 AM27 °FOvercast.15 mph80%30.04 "Hg10 mi
4:13 AM27 °FOvercast.13 mph80%30.04 "Hg10 mi
3:53 AM27 °FOvercast.10 mph80%30.06 "Hg10 mi
3:34 AM28 °FOvercast.10 mph74%30.07 "Hg10 mi
3:13 AM28 °FOvercast.9 mph74%30.08 "Hg10 mi
2:54 AM28 °FOvercast.7 mph74%30.09 "Hg10 mi
2:33 AM28 °FOvercast.7 mph74%30.09 "Hg10 mi
2:13 AM28 °FOvercast.8 mph74%30.08 "Hg10 mi
1:54 AM28 °FOvercast.10 mph74%30.07 "Hg10 mi
1:33 AM28 °FOvercast.13 mph74%30.07 "Hg10 mi
1:14 AM28 °FOvercast.13 mph74%30.07 "Hg10 mi
12:53 AM28 °FOvercast.12 mph74%30.08 "Hg10 mi
12:33 AM28 °FOvercast.8 mph74%30.10 "Hg10 mi
12:14 AM28 °FOvercast.10 mph74%30.10 "Hg10 mi
11:53 PM
Dec 26
28 °FOvercast.6 mph74%30.11 "Hg10 mi
11:33 PM28 °FOvercast.6 mph74%30.12 "Hg10 mi
11:14 PM30 °FOvercast.9 mph69%30.13 "Hg10 mi
10:53 PM30 °FOvercast.9 mph69%30.12 "Hg10 mi
10:33 PM30 °FOvercast.10 mph69%30.12 "Hg10 mi
9:33 PM30 °FOvercast.13 mph69%30.12 "Hg10 mi
8:54 PM30 °FOvercast.13 mph75%30.12 "Hg10 mi
8:33 PM30 °FOvercast.10 mph75%30.12 "Hg10 mi
8:13 PM30 °FOvercast.9 mph80%30.12 "Hg10 mi
7:54 PM30 °FOvercast.10 mph80%30.12 "Hg10 mi
7:33 PM30 °FOvercast.9 mph80%30.12 "Hg10 mi
7:13 PM30 °FOvercast.10 mph80%30.11 "Hg10 mi
6:54 PM30 °FOvercast.10 mph80%30.12 "Hg10 mi
6:33 PM32 °FOvercast.10 mph75%30.11 "Hg10 mi
5:54 PM34 °FOvercast.9 mph70%30.11 "Hg10 mi
5:33 PM32 °FOvercast.8 mph69%30.10 "Hg10 mi
5:14 PM34 °FOvercast.12 mph70%30.11 "Hg10 mi
4:53 PM34 °FOvercast.No wind70%30.11 "Hg10 mi
4:34 PM34 °FOvercast.No wind70%30.10 "Hg10 mi
4:13 PM34 °FOvercast.7 mph70%30.09 "Hg10 mi
3:53 PM34 °FOvercast.8 mph70%30.07 "Hg10 mi
3:34 PM34 °FOvercast.8 mph75%30.07 "Hg10 mi
2:53 PM32 °FOvercast.No wind80%30.08 "Hg10 mi
2:34 PM32 °FOvercast.No wind80%30.07 "Hg10 mi
2:13 PM34 °FOvercast.No wind75%30.07 "Hg10 mi
1:53 PM34 °FOvercast.No wind75%30.06 "Hg10 mi
1:34 PM32 °FOvercast.No wind80%30.05 "Hg10 mi
1:13 PM32 °FOvercast.No wind80%30.05 "Hg10 mi
12:54 PM32 °FOvercast.No wind80%30.05 "Hg10 mi
12:33 PM32 °FOvercast.No wind80%30.06 "Hg10 mi
12:13 PM34 °FMore clouds than sun.No wind75%30.06 "Hg10 mi
11:54 AM32 °FCloudy.No wind80%30.06 "Hg10 mi
11:33 AM32 °FLight snow. More clouds than sun.No wind80%30.07 "Hg10 mi
11:13 AM32 °FLight snow. More clouds than sun.No wind80%30.07 "Hg10 mi
10:54 AM30 °FLight snow. Broken clouds.7 mph86%30.07 "Hg10 mi
10:33 AM32 °FLight snow. More clouds than sun.8 mph80%30.07 "Hg10 mi
10:13 AM32 °FBroken clouds.8 mph80%30.07 "Hg10 mi
9:54 AM32 °FLight snow. Mostly cloudy.7 mph80%30.07 "Hg10 mi
9:33 AM32 °FMore clouds than sun.9 mph80%30.06 "Hg10 mi
9:13 AM30 °FMore clouds than sun.8 mph86%30.05 "Hg10 mi
8:54 AM30 °FMostly cloudy.8 mph86%30.05 "Hg10 mi
8:33 AM30 °FMostly cloudy.9 mph86%30.04 "Hg10 mi
8:13 AM30 °FLight snow. More clouds than sun.9 mph86%30.03 "Hg10 mi
7:54 AM30 °FLight snow. Mostly cloudy.No wind86%30.02 "Hg10 mi
7:33 AM30 °FLight snow. Mostly cloudy.7 mph86%30.02 "Hg7 mi
7:13 AM30 °FLight snow. Mostly cloudy.7 mph80%30.02 "Hg10 mi
6:53 AM30 °FLight snow. Overcast.8 mph86%30.01 "Hg10 mi
6:33 AM30 °FLight snow. Overcast.10 mph80%30.01 "Hg10 mi
6:13 AM32 °FOvercast.8 mph75%30.00 "Hg10 mi
Weather by CustomWeather, © 2014

See weather overviewHow to use our weather pages